STARLINK-32477, 62038

Orbit data source: Space-Track

STARLINK-32477, 62038 is a payload satellite owned by SpaceX/Seattle (US) in LEO that was launched on Thu, 21 Nov 2024 UTC via an FALCON 9 launch vehicle from the Air Force Eastern Test Range (AFETR). Payload-class satellites include a variety of spacecraft equipped with specific instruments for various scientific and technological missions. These include communications satellites like Starlink; space stations such as the ISS; scientific satellites like the Hubble; Earth observation satellites from companies like Planet Labs, Umbra, and HawkEye 360; GPS; miniature CubeSats for education and research; and military/defense satellites.

Loading next visibility...
Identifier
62038, 2024-216G
Orbit
LEO
Country
Flag of USUS
Related business
Manufacturer
SpaceX/Seattle
Mission
Operational Commercial Communications
Bus & Motor
STARLINK V2M, Unknown motor
Mass
730 kg wet, ~700 kg dry
Launch date (UTC)
2024-11-21 (11 months ago)
Launch vehicle
FALCON 9
Launch site
Air Force Eastern Test Range (AFETR)
Object type
Payload
Rocket body
Debris
Shape & HBR
Box + 2 Pan, 17.7 m
Radar Cross Section
33.884 m², Large (>1 m²)

Expand to show TLE details & history
Last TLE update: 15 hours ago

TLE from 15 hours ago
0 STARLINK-32477
1 62038U 24216G   25296.09352059  .00030480  00000-0  11107-2 0  9998
2 62038  43.0021 309.8056 0001616 252.3457 107.7219 15.27636091 51715
Epoch: 2025-10-23T02:14Z
TLE epoch observation values (Epoch: 2025-10-23T02:14:40.178Z)
Latitude
0.00001°
Longitude
-115.61952°
Altitude
482.994 km
Speed
7.626 km/s
True Right ascension
20h 39m 13s
True Declination
0° 00' 00"
Sunlit
Object was in daylight at epoch
Visualization orbit readout
Latitude
Unknown
Longitude
Unknown
Altitude
Unknown
Speed
Unknown
Apparent Right ascension
Unknown
Apparent Declination
Unknown
Sunlit
N/A
Visualization observer readout
Local Sidereal Time
12:17:19
Azimuth
Unknown
Elevation
Unknown
Doppler factor
Unknown
Orbital elements
Apogee altitude
485.935 km
Perigee altitude
483.717 km
Semi-major axis
6,862.963 km
Eccentricity
0.00016
Inclination
43.0021°
RAAN
309.8056°
Arg. of periapsis
252.3457°
True anomaly
107.73954°
Mean anomaly
107.7219°
Eccentric anomaly
107.73072°
Mean motion
3.81747 °/min
Orbital period
94.3 mins
BSTAR
0.0011107
Loading maneuver chart data...
Computing Atmospheric mass density...
Loading historical data...
Loading historical data...
Loading historical data...
Loading historical data...
Loading historical data...
Loading historical data...
Loading historical data...

Documentation

Showing up to 5 results
|